Boone, IA

3:44 PM CDT on April 26, 2017 (GMT -0500)
Boone Municipal

Weather History for KBNW - January, 2014

Change the Weather History Date:

Tuesday, January 14, 2014

  Actual Average Record
Temperature  
Mean Temperature 26 °F -  
Max Temperature 39 °F 29 °F 60 °F (1987)
Min Temperature 14 °F 6 °F -28 °F (1982)
Degree Days  
Heating Degree Days 38    
Moisture  
Dew Point 17 °F    
Average Humidity 67    
Maximum Humidity 87    
Minimum Humidity 55    
Precipitation  
Precipitation 0.00 in - - ()
Sea Level Pressure  
Sea Level Pressure 29.87 in    
Wind  
Wind Speed 21 mph (NW)    
Max Wind Speed 36 mph    
Max Gust Speed 47 mph    
Visibility 10 miles    
Events Rain , Snow    
Averages and records for this station are not official NWS values.
T = Trace of Precipitation, MM = Missing Value Source: NWS Daily Summary

Daily Weather History Graph

Daily Weather History Graph

Search for Another Location

Airport or City:

Trip Planner

Search our weather history database for the weather conditions in past years. The results will help you decide how hot, cold, wet, or windy it might be!

Date:

Astronomy

Jan. 14, 2014 Rise Set
Actual Time 7:41 AM CST 5:07 PM CST
Civil Twilight 7:10 AM CST 5:38 PM CST
Nautical Twilight 6:36 AM CST 6:13 PM CST
Astronomical Twilight 6:02 AM CST 6:46 PM CST
Moon 4:14 PM CST (1/14) 6:16 AM CST (1/14)
Length of Visible Light 10h 28m
Length of Day
9h 26m
Waxing Gibbous, 98% of the Moon is Illuminated
Jan 14
Waxing Gibbous
Jan 15
Full
Jan 23
Last Quarter
Jan 30
New
Feb 6
First Quarter

Hourly Weather History & Observations

Time (CST) Temp. Windchill Dew Point Humidity Pressure Visibility Wind Dir Wind Speed Gust Speed Precip Events Conditions
12:15 AM 33.8 °F 24.3 °F 28.4 °F 81% 29.58 in 10.0 mi SW 13.8 mph - N/A   Partly Cloudy
12:35 AM 33.8 °F 25.3 °F 28.4 °F 81% 29.58 in 10.0 mi SW 11.5 mph - N/A   Mostly Cloudy
12:55 AM 33.8 °F 24.8 °F 28.4 °F 81% 29.57 in 10.0 mi SW 12.7 mph - N/A   Overcast
1:15 AM 33.8 °F 25.3 °F 28.4 °F 81% 29.56 in 10.0 mi SSW 11.5 mph 18.4 mph N/A   Overcast
1:35 AM 35.6 °F 26.6 °F 28.4 °F 75% 29.55 in 10.0 mi SW 13.8 mph - N/A   Overcast
1:55 AM 35.6 °F 27.1 °F 28.4 °F 75% 29.55 in 10.0 mi SW 12.7 mph - N/A   Overcast
2:15 AM 35.6 °F 26.6 °F 28.4 °F 75% 29.54 in 10.0 mi SW 13.8 mph - N/A   Overcast
2:35 AM 35.6 °F 27.5 °F 30.2 °F 81% 29.55 in 10.0 mi SW 11.5 mph - N/A Rain Light Rain
2:55 AM 35.6 °F 27.5 °F 30.2 °F 81% 29.55 in 10.0 mi WSW 11.5 mph - N/A   Overcast
3:15 AM 35.6 °F 27.1 °F 32.0 °F 87% 29.55 in 10.0 mi WSW 12.7 mph - N/A   Overcast
3:35 AM 39.2 °F 30.5 °F 32.0 °F 75% 29.55 in 10.0 mi West 16.1 mph - N/A   Overcast
3:55 AM 39.2 °F 30.8 °F 32.0 °F 75% 29.56 in 10.0 mi West 15.0 mph 21.9 mph N/A   Overcast
4:15 AM 39.2 °F - 33.8 °F 81% 29.57 in 10.0 mi North - - N/A   Overcast
4:35 AM 39.2 °F 29.6 °F 33.8 °F 81% 29.60 in 10.0 mi NW 19.6 mph 39.1 mph N/A   Overcast
4:55 AM 39.2 °F 28.7 °F 32.0 °F 75% 29.61 in 10.0 mi WNW 23.0 mph 47.2 mph N/A   Overcast
5:15 AM 37.4 °F 24.8 °F 32.0 °F 81% 29.62 in 10.0 mi NW 31.1 mph 42.6 mph N/A   Overcast
5:35 AM 37.4 °F 25.4 °F 28.4 °F 70% 29.64 in 10.0 mi WNW 27.6 mph 42.6 mph N/A   Overcast
5:55 AM 35.6 °F 22.5 °F 26.6 °F 70% 29.67 in 10.0 mi NW 29.9 mph 40.3 mph N/A   Mostly Cloudy
6:15 AM 35.6 °F 22.5 °F 24.8 °F 65% 29.68 in 10.0 mi NW 29.9 mph 39.1 mph N/A   Mostly Cloudy
6:35 AM 35.6 °F 22.7 °F 24.8 °F 65% 29.70 in 10.0 mi NW 28.8 mph 43.7 mph N/A   Overcast
6:55 AM 32.0 °F 16.5 °F 24.8 °F 75% 29.72 in 10.0 mi NW 35.7 mph 44.9 mph N/A   Mostly Cloudy
7:15 AM 32.0 °F 18.1 °F 23.0 °F 69% 29.75 in 10.0 mi NW 27.6 mph 41.4 mph N/A   Overcast
7:35 AM 30.2 °F 15.9 °F 21.2 °F 69% 29.75 in 10.0 mi NW 26.5 mph 39.1 mph N/A   Overcast
7:55 AM 30.2 °F 15.9 °F 21.2 °F 69% 29.77 in 10.0 mi NW 26.5 mph 35.7 mph N/A   Overcast
8:15 AM 28.4 °F 14.4 °F 19.4 °F 69% 29.79 in 10.0 mi WNW 23.0 mph 40.3 mph N/A   Overcast
8:35 AM 28.4 °F 14.1 °F 19.4 °F 69% 29.81 in 10.0 mi WNW 24.2 mph 34.5 mph N/A   Overcast
8:55 AM 28.4 °F 12.7 °F 19.4 °F 69% 29.82 in 10.0 mi NW 29.9 mph 42.6 mph N/A   Overcast
9:15 AM 28.4 °F 13.5 °F 17.6 °F 64% 29.84 in 10.0 mi NW 26.5 mph 42.6 mph N/A   Overcast
9:35 AM 28.4 °F 12.7 °F 17.6 °F 64% 29.85 in 10.0 mi NW 29.9 mph 44.9 mph N/A   Overcast
9:55 AM 28.4 °F 14.7 °F 17.6 °F 64% 29.85 in 10.0 mi NW 21.9 mph 31.1 mph N/A   Overcast
10:15 AM 28.4 °F 13.5 °F 17.6 °F 64% 29.86 in 10.0 mi NNW 26.5 mph 43.7 mph N/A   Overcast
10:35 AM 28.4 °F 13.3 °F 17.6 °F 64% 29.88 in 10.0 mi NW 27.6 mph 39.1 mph N/A   Overcast
10:55 AM 28.4 °F 13.3 °F 17.6 °F 64% 29.89 in 8.0 mi NW 27.6 mph 35.7 mph N/A Snow Light Snow
11:15 AM 26.6 °F 12.0 °F 19.4 °F 74% 29.90 in 2.5 mi NW 23.0 mph 36.8 mph N/A Snow Light Snow
11:35 AM 26.6 °F 10.0 °F 17.6 °F 69% 29.90 in 8.0 mi WNW 31.1 mph 40.3 mph N/A   Overcast
11:55 AM 26.6 °F 11.4 °F 17.6 °F 69% 29.91 in 9.0 mi WNW 25.3 mph 33.4 mph N/A   Overcast
12:15 PM 26.6 °F 10.8 °F 15.8 °F 64% 29.91 in 7.0 mi NW 27.6 mph 35.7 mph N/A Snow Light Snow
12:35 PM 26.6 °F 10.0 °F 12.2 °F 55% 29.91 in 10.0 mi NW 31.1 mph 40.3 mph N/A   Overcast
12:55 PM 26.6 °F 10.6 °F 12.2 °F 55% 29.91 in 10.0 mi NW 28.8 mph 38.0 mph N/A   Overcast
1:15 PM 26.6 °F 10.3 °F 12.2 °F 55% 29.91 in 10.0 mi WNW 29.9 mph 43.7 mph N/A   Overcast
1:35 PM 26.6 °F 11.1 °F 12.2 °F 55% 29.92 in 10.0 mi NW 26.5 mph 38.0 mph N/A   Overcast
1:55 PM 26.6 °F 10.0 °F 14.0 °F 59% 29.93 in 9.0 mi NW 31.1 mph 41.4 mph N/A   Overcast
2:15 PM 24.8 °F 8.4 °F 15.8 °F 69% 29.94 in 9.0 mi NW 27.6 mph 39.1 mph N/A   Overcast
2:35 PM 24.8 °F 7.6 °F 14.0 °F 64% 29.95 in 10.0 mi NW 31.1 mph 42.6 mph N/A Snow Light Snow
2:55 PM 24.8 °F 7.3 °F 12.2 °F 59% 29.96 in 10.0 mi NW 32.2 mph 42.6 mph N/A   Overcast
3:15 PM 24.8 °F 9.0 °F 12.2 °F 59% 29.98 in 10.0 mi NW 25.3 mph 38.0 mph N/A   Overcast
3:35 PM 24.8 °F 7.9 °F 12.2 °F 59% 29.99 in 10.0 mi NW 29.9 mph 40.3 mph N/A   Overcast
3:55 PM 23.0 °F 6.6 °F 12.2 °F 63% 30.00 in 10.0 mi NW 25.3 mph 39.1 mph N/A   Overcast
4:15 PM 23.0 °F 7.6 °F 10.4 °F 59% 30.02 in 10.0 mi NW 21.9 mph 38.0 mph N/A   Overcast
4:35 PM 23.0 °F 6.6 °F 10.4 °F 59% 30.03 in 10.0 mi NW 25.3 mph 43.7 mph N/A   Overcast
4:55 PM 21.2 °F 3.0 °F 8.6 °F 58% 30.03 in 10.0 mi NW 29.9 mph 44.9 mph N/A   Overcast
5:15 PM 21.2 °F 3.0 °F 10.4 °F 63% 30.04 in 10.0 mi NW 29.9 mph 40.3 mph N/A   Overcast
5:35 PM 21.2 °F 3.9 °F 8.6 °F 58% 30.05 in 10.0 mi NW 26.5 mph 40.3 mph N/A   Overcast
5:55 PM 21.2 °F 2.7 °F 8.6 °F 58% 30.05 in 10.0 mi NW 31.1 mph 39.1 mph N/A   Overcast
6:15 PM 21.2 °F 3.0 °F 8.6 °F 58% 30.06 in 10.0 mi NW 29.9 mph 44.9 mph N/A   Overcast
6:35 PM 21.2 °F 5.6 °F 8.6 °F 58% 30.07 in 10.0 mi NW 20.7 mph 31.1 mph N/A   Overcast
6:55 PM 21.2 °F 4.5 °F 10.4 °F 63% 30.08 in 10.0 mi NW 24.2 mph 33.4 mph N/A   Overcast
7:15 PM 21.2 °F 4.5 °F 10.4 °F 63% 30.08 in 10.0 mi NW 24.2 mph - N/A   Overcast
7:35 PM 19.4 °F 1.8 °F 8.6 °F 63% 30.09 in 10.0 mi NW 25.3 mph 33.4 mph N/A   Overcast
7:55 PM 19.4 °F 1.1 °F 8.6 °F 63% 30.09 in 10.0 mi NW 27.6 mph 38.0 mph N/A   Overcast
8:15 PM 19.4 °F 0.5 °F 8.6 °F 63% 30.09 in 10.0 mi NNW 29.9 mph 35.7 mph N/A   Overcast
8:35 PM 19.4 °F 2.8 °F 8.6 °F 63% 30.10 in 10.0 mi NW 21.9 mph 34.5 mph N/A Snow Light Snow
8:55 PM 17.6 °F -0.3 °F 6.8 °F 63% 30.10 in 10.0 mi NW 24.2 mph 34.5 mph N/A Snow Light Snow
9:15 PM 17.6 °F -1.0 °F 5.0 °F 58% 30.10 in 10.0 mi NW 26.5 mph 34.5 mph N/A   Overcast
9:35 PM 17.6 °F -0.6 °F 5.0 °F 58% 30.11 in 10.0 mi NW 25.3 mph 33.4 mph N/A   Overcast
9:55 PM 17.6 °F 2.7 °F 5.0 °F 58% 30.11 in 10.0 mi NNW 16.1 mph 29.9 mph N/A   Overcast
10:15 PM 15.8 °F -1.1 °F 5.0 °F 62% 30.11 in 10.0 mi NNW 19.6 mph - N/A   Scattered Clouds
10:35 PM 15.8 °F -1.5 °F 5.0 °F 62% 30.12 in 10.0 mi NNW 20.7 mph 27.6 mph N/A   Clear
10:55 PM 15.8 °F -2.7 °F 5.0 °F 62% 30.12 in 10.0 mi NNW 24.2 mph 29.9 mph N/A   Partly Cloudy
11:15 PM 14.0 °F -3.9 °F 5.0 °F 67% 30.12 in 10.0 mi NNW 20.7 mph 26.5 mph N/A   Mostly Cloudy
11:35 PM 14.0 °F -3.9 °F 5.0 °F 67% 30.12 in 10.0 mi NNW 20.7 mph 27.6 mph N/A   Overcast
11:55 PM 14.0 °F -3.9 °F 5.0 °F 67% 30.13 in 10.0 mi NNW 20.7 mph 28.8 mph N/A   Overcast